EN

Hourly Weather Orongoy

Today, 18 May, Tuesday

Time Temperature Precipitation Wind Pressure Humidity
00:00 +8°C° 0 mm 3 mps 710 mmHg 80%
01:00 +7°C° 0 mm 2 mps 709 mmHg 84%
02:00 +7°C° 0.1 mm 2 mps 709 mmHg 86%
03:00 +7°C° 0.1 mm 2 mps 709 mmHg 87%
04:00 +6°C° 0.1 mm 2 mps 710 mmHg 89%
05:00 +7°C° 0.1 mm 2 mps 710 mmHg 87%
06:00 +7°C° 0.1 mm 2 mps 710 mmHg 86%
07:00 +7°C° 0.1 mm 2 mps 710 mmHg 85%
08:00 +8°C° 0.1 mm 2 mps 710 mmHg 77%
09:00 +9°C° 0.1 mm 3 mps 711 mmHg 70%
10:00 +9°C° 0.1 mm 3 mps 711 mmHg 62%
11:00 +16°C° 0.1 mm 3 mps 708 mmHg 38%
12:00 +14°C° 0.1 mm 4 mps 709 mmHg 38%
13:00 +14°C° 0.1 mm 4 mps 710 mmHg 38%
14:00 +14°C° 0 mm 4 mps 709 mmHg 37%
15:00 +16°C° 0 mm 3 mps 709 mmHg 36%
16:00 +16°C° 0 mm 3 mps 708 mmHg 35%
17:00 +14°C° 0 mm 3 mps 707 mmHg 42%
18:00 +14°C° 0 mm 2 mps 707 mmHg 48%
19:00 +13°C° 0 mm 2 mps 706 mmHg 55%
20:00 +12°C° 0 mm 2 mps 706 mmHg 59%
21:00 +10°C° 0 mm 2 mps 705 mmHg 63%
22:00 +9°C° 0 mm 2 mps 704 mmHg 68%
23:00 +9°C° 0 mm 2 mps 703 mmHg 69%

Tomorrow, 19 May, Wednesday

Time Temperature Precipitation Wind Pressure Humidity
00:00 +9°C° 0 mm 2 mps 702 mmHg 71%
01:00 +9°C° 0 mm 2 mps 701 mmHg 73%
02:00 +9°C° 0.1 mm 2 mps 700 mmHg 75%
03:00 +9°C° 0.1 mm 2 mps 700 mmHg 78%
04:00 +10°C° 0.1 mm 1 mps 699 mmHg 80%
05:00 +9°C° 0.1 mm 3 mps 700 mmHg 80%
06:00 +8°C° 0.1 mm 5 mps 701 mmHg 80%
07:00 +8°C° 0.1 mm 6 mps 702 mmHg 80%
08:00 +7°C° 0 mm 5 mps 703 mmHg 81%
09:00 +6°C° 0 mm 4 mps 705 mmHg 83%
10:00 +6°C° 0 mm 4 mps 706 mmHg 84%
11:00 +7°C° 0 mm 4 mps 707 mmHg 78%
12:00 +7°C° 0 mm 4 mps 707 mmHg 72%
13:00 +8°C° 0 mm 4 mps 708 mmHg 66%
14:00 +10°C° 0 mm 3 mps 707 mmHg 57%
15:00 +13°C° 0 mm 2 mps 707 mmHg 48%
16:00 +14°C° 0 mm 1 mps 706 mmHg 40%
17:00 +13°C° 0 mm 1 mps 706 mmHg 43%
18:00 +12°C° 0 mm 1 mps 706 mmHg 46%
19:00 +12°C° 0 mm 1 mps 705 mmHg 50%
20:00 +11°C° 0 mm 1 mps 705 mmHg 51%
21:00 +10°C° 0 mm 1 mps 704 mmHg 53%
22:00 +9°C° 0 mm 1 mps 704 mmHg 55%
23:00 +9°C° 0 mm 1 mps 703 mmHg 55%

Day after tomorrow, 20 May, Thursday

Time Temperature Precipitation Wind Pressure Humidity
00:00 +9°C° 0 mm 1 mps 703 mmHg 55%
01:00 +9°C° 0 mm 1 mps 702 mmHg 55%
02:00 +8°C° 0 mm 1 mps 702 mmHg 58%
03:00 +8°C° 0 mm 1 mps 702 mmHg 62%
04:00 +7°C° 0 mm 1 mps 702 mmHg 66%
05:00 +7°C° 0 mm 2 mps 703 mmHg 62%
06:00 +8°C° 0 mm 2 mps 703 mmHg 58%
07:00 +10°C° 0 mm 2 mps 704 mmHg 54%
08:00 +12°C° 0 mm 2 mps 704 mmHg 51%
09:00 +12°C° 0 mm 3 mps 704 mmHg 47%
10:00 +14°C° 0 mm 3 mps 704 mmHg 44%
11:00 +14°C° 0.4 mm 3 mps 704 mmHg 47%
12:00 +14°C° 0.4 mm 3 mps 704 mmHg 49%
13:00 +14°C° 0.4 mm 3 mps 705 mmHg 52%
14:00 +16°C° 0 mm 3 mps 704 mmHg 49%
15:00 +17°C° 0 mm 4 mps 704 mmHg 46%
16:00 +17°C° 0 mm 5 mps 703 mmHg 42%
17:00 +16°C° 0 mm 5 mps 703 mmHg 46%
18:00 +15°C° 0 mm 5 mps 702 mmHg 49%
19:00 +14°C° 0 mm 6 mps 702 mmHg 52%
20:00 +13°C° 0 mm 5 mps 702 mmHg 57%
21:00 +11°C° 0 mm 4 mps 702 mmHg 61%
22:00 +10°C° 0 mm 4 mps 702 mmHg 66%
23:00 +9°C° 0 mm 3 mps 702 mmHg 69%

21 May, Friday

Time Temperature Precipitation Wind Pressure Humidity
00:00 +9°C° 0 mm 3 mps 702 mmHg 73%
01:00 +8°C° 0 mm 3 mps 701 mmHg 77%
02:00 +8°C° 0 mm 3 mps 701 mmHg 78%
03:00 +7°C° 0 mm 3 mps 701 mmHg 80%
04:00 +7°C° 0 mm 2 mps 701 mmHg 82%
05:00 +8°C° 0 mm 3 mps 701 mmHg 79%
06:00 +9°C° 0 mm 3 mps 702 mmHg 76%
07:00 +9°C° 0 mm 3 mps 702 mmHg 74%
08:00 +11°C° 0 mm 3 mps 702 mmHg 70%
09:00 +12°C° 0 mm 4 mps 702 mmHg 66%
10:00 +13°C° 0 mm 4 mps 702 mmHg 62%
11:00 +13°C° 0 mm 4 mps 702 mmHg 61%
12:00 +13°C° 0 mm 5 mps 702 mmHg 61%
13:00 +11°C° 0 mm 6 mps 702 mmHg 61%
14:00 +10°C° 0 mm 5 mps 703 mmHg 63%
15:00 +9°C° 0 mm 5 mps 703 mmHg 65%
16:00 +8°C° 0 mm 5 mps 703 mmHg 68%
17:00 +7°C° 0.2 mm 5 mps 703 mmHg 72%
18:00 +6°C° 0.2 mm 5 mps 704 mmHg 76%
19:00 +4°C° 0.2 mm 4 mps 704 mmHg 80%
20:00 +3°C° 0.8 mm 4 mps 704 mmHg 83%
21:00 +3°C° 0.8 mm 3 mps 705 mmHg 86%
22:00 +3°C° 0.8 mm 2 mps 705 mmHg 89%
23:00 +3°C° 0.2 mm 2 mps 705 mmHg 91%

22 May, Saturday

Time Temperature Precipitation Wind Pressure Humidity
00:00 +3°C° 0.2 mm 2 mps 705 mmHg 93%
01:00 +3°C° 0.2 mm 2 mps 705 mmHg 95%
02:00 +3°C° 0.2 mm 2 mps 705 mmHg 94%
03:00 +3°C° 0.2 mm 2 mps 705 mmHg 94%
04:00 +3°C° 0.2 mm 2 mps 705 mmHg 93%
05:00 +2°C° 0.4 mm 3 mps 705 mmHg 93%
06:00 +2°C° 0.4 mm 3 mps 705 mmHg 93%
07:00 +1°C° 0.4 mm 4 mps 706 mmHg 93%
08:00 +1°C° 0.9 mm 5 mps 706 mmHg 93%
09:00 +2°C° 0.9 mm 5 mps 706 mmHg 92%
10:00 +2°C° 0.9 mm 6 mps 706 mmHg 92%
11:00 +3°C° 0.4 mm 7 mps 706 mmHg 86%
12:00 +4°C° 0.4 mm 7 mps 707 mmHg 80%
13:00 +5°C° 0.4 mm 8 mps 707 mmHg 73%
14:00 +6°C° 0.2 mm 8 mps 707 mmHg 70%
15:00 +6°C° 0.2 mm 7 mps 707 mmHg 67%
16:00 +8°C° 0.2 mm 7 mps 708 mmHg 64%
17:00 +7°C° 0.1 mm 6 mps 708 mmHg 67%
18:00 +7°C° 0.1 mm 6 mps 708 mmHg 69%
19:00 +5°C° 0.1 mm 6 mps 708 mmHg 72%
20:00 +2°C° 0 mm 8 mps 707 mmHg 74%
21:00 +2°C° 0 mm 8 mps 707 mmHg 73%
22:00 +2°C° 0 mm 8 mps 707 mmHg 72%
23:00 +2°C° 0 mm 8 mps 708 mmHg 75%

23 May, Sunday

Time Temperature Precipitation Wind Pressure Humidity
00:00 +1°C° 0 mm 8 mps 708 mmHg 78%
01:00 +1°C° 0 mm 8 mps 708 mmHg 81%
02:00 +1°C° 0 mm 8 mps 708 mmHg 82%
03:00 +1°C° 0 mm 8 mps 709 mmHg 82%
04:00 +1°C° 0 mm 8 mps 709 mmHg 83%
05:00 +1°C° 0 mm 8 mps 709 mmHg 81%
06:00 +2°C° 0 mm 9 mps 709 mmHg 79%
07:00 +2°C° 0 mm 9 mps 710 mmHg 77%
08:00 +3°C° 0.1 mm 9 mps 710 mmHg 74%
09:00 +5°C° 0.1 mm 10 mps 710 mmHg 71%
10:00 +5°C° 0.1 mm 10 mps 710 mmHg 68%
11:00 +6°C° 0.1 mm 10 mps 710 mmHg 65%
12:00 +6°C° 0.1 mm 10 mps 710 mmHg 63%
13:00 +7°C° 0.1 mm 10 mps 711 mmHg 61%
14:00 +6°C° 0.2 mm 9 mps 711 mmHg 63%
15:00 +6°C° 0.2 mm 8 mps 711 mmHg 65%
16:00 +6°C° 0.2 mm 7 mps 711 mmHg 67%
17:00 +5°C° 0.3 mm 7 mps 712 mmHg 71%
18:00 +4°C° 0.3 mm 6 mps 712 mmHg 74%
19:00 +4°C° 0.3 mm 6 mps 712 mmHg 78%
20:00 +3°C° 0.1 mm 5 mps 712 mmHg 77%
21:00 +3°C° 0.1 mm 5 mps 713 mmHg 75%
22:00 +3°C° 0.1 mm 5 mps 713 mmHg 73%
23:00 +3°C° 0 mm 5 mps 713 mmHg 72%
Show more

We Need Your Consent

Meteoprog and our Service Providers may store and access personal data such as cookies, device identifiers or other similar technologies on your device and process such data to personalise content and ads, as well as provide social media features and to analyse the traffic.

  • Store and/or access information on your device

    Cookies, device identifiers or other information can be stored or accessed on your device for the purposes indicated above.

  • Personalised ads and content, ad and content measurement, audience insights, and products development

    Ads and content can be personalised based on a profile. More data can be added to better personalise ads and content. Ad and content performance can be measured. Insights about the audience who saw the ads and content can be derived. Such data can be used to develop or improve user’s experience, systems and software.

By clicking ‘I Agree’ you will allow the use of indicated cookies, device identifiers, web beacons or other similar technologies. Your settings can be changed in the browser on your device.

For certain purposes, legitimate interests may be relied on, rather than consent. You can read more about this in our Privacy and Cookie Policy.